Tracking 19476 objects as of 17-Jan-2019
HD Live streaming from Space Station
objects crossing your sky now

TEMISAT

Track TEMISAT now!
10-day predictions
TEMISAT is classified as:


NORAD ID: 22783
Int'l Code: 1993-055B
Perigee: 942.1 km
Apogee: 973.8 km
Inclination: 82.6 °
Period: 104.1 minutes
Semi major axis: 7328 km
RCS: 0.2915 m2 (medium)
Launch date: August 31, 1993
Source: Italy (IT)
Launch site: PLESETSK MISSILE AND SPACE COMPLEX (PKMTR)
aabbcc
Your satellite tracking list
Your tracking list is empty




NASA's NSSDC Master Catalog

Two Line Element Set (TLE):
1 22783U 93055B   19017.29711004  .00000011  00000-0 -31344-5 0  9999
2 22783  82.5522 286.1725 0021650 244.0533 115.8397 13.83698950281742
Source of the keplerian elements: AFSPC